******** Week 145 almanac for PRN-1 ******** ID: 1 Health: 0 Eccentricity: 0.01126432419 Time of Applicability(s): 147456 Orbital Inclination(rad): 0.9863939882 Rate of Right Ascen(r/s): -8.034620388e-09 SQRT(A) (m 1/2): 5153.623047 Right Ascen at Week(rad): -1.409451958 Argument of Perigee(rad): 0.8822243344 Mean Anom(rad): 2.572160336 Af0(s): 0.0003595026489 Af1(s/s): -1.091394e-11 week: 145 ******** Week 145 almanac for PRN-2 ******** ID: 2 Health: 0 Eccentricity: 0.02069330215 Time of Applicability(s): 147456 Orbital Inclination(rad): 0.9647384938 Rate of Right Ascen(r/s): -8.183198006e-09 SQRT(A) (m 1/2): 5153.624023 Right Ascen at Week(rad): -1.498168179 Argument of Perigee(rad): -1.455958616 Mean Anom(rad): 2.733280375 Af0(s): -0.0005124985352 Af1(s/s): 0 week: 145 ******** Week 145 almanac for PRN-3 ******** ID: 3 Health: 0 Eccentricity: 0.003867149353 Time of Applicability(s): 147456 Orbital Inclination(rad): 0.9725522085 Rate of Right Ascen(r/s): -7.657461821e-09 SQRT(A) (m 1/2): 5153.658203 Right Ascen at Week(rad): -0.3739272916 Argument of Perigee(rad): 0.9742028861 Mean Anom(rad): 1.406017355 Af0(s): -6.481599121e-05 Af1(s/s): -1.455192e-11 week: 145 ******** Week 145 almanac for PRN-4 ******** ID: 4 Health: 0 Eccentricity: 0.001649856567 Time of Applicability(s): 147456 Orbital Inclination(rad): 0.9610833052 Rate of Right Ascen(r/s): -7.680319916e-09 SQRT(A) (m 1/2): 5153.610352 Right Ascen at Week(rad): 0.7067999992 Argument of Perigee(rad): -3.1034978 Mean Anom(rad): -1.890282281 Af0(s): -0.0001537495605 Af1(s/s): 3.637979e-12 week: 145 ******** Week 145 almanac for PRN-5 ******** ID: 5 Health: 0 Eccentricity: 0.005896568298 Time of Applicability(s): 147456 Orbital Inclination(rad): 0.9595193639 Rate of Right Ascen(r/s): -7.817468486e-09 SQRT(A) (m 1/2): 5153.607422 Right Ascen at Week(rad): -0.4139295108 Argument of Perigee(rad): 1.012063674 Mean Anom(rad): -1.063753134 Af0(s): -5.426455078e-05 Af1(s/s): 0 week: 145 ******** Week 145 almanac for PRN-6 ******** ID: 6 Health: 0 Eccentricity: 0.002639293671 Time of Applicability(s): 147456 Orbital Inclination(rad): 0.9857768007 Rate of Right Ascen(r/s): -8.023191341e-09 SQRT(A) (m 1/2): 5153.604492 Right Ascen at Week(rad): -1.417723695 Argument of Perigee(rad): -0.9972837542 Mean Anom(rad): 2.937894163 Af0(s): 0.0001371687256 Af1(s/s): 1.091394e-11 week: 145 ******** Week 145 almanac for PRN-7 ******** ID: 7 Health: 0 Eccentricity: 0.01544141769 Time of Applicability(s): 147456 Orbital Inclination(rad): 0.9505132189 Rate of Right Ascen(r/s): -8.023191341e-09 SQRT(A) (m 1/2): 5153.634277 Right Ascen at Week(rad): 1.726296889 Argument of Perigee(rad): -2.295278301 Mean Anom(rad): 1.909529321 Af0(s): 0.0002389147583 Af1(s/s): 3.637979e-12 week: 145 ******** Week 145 almanac for PRN-8 ******** ID: 8 Health: 0 Eccentricity: 0.007143497467 Time of Applicability(s): 147456 Orbital Inclination(rad): 0.9652418313 Rate of Right Ascen(r/s): -7.783181343e-09 SQRT(A) (m 1/2): 5153.664551 Right Ascen at Week(rad): -2.48904262 Argument of Perigee(rad): 0.08158822868 Mean Anom(rad): -1.414624275 Af0(s): -4.14520874e-05 Af1(s/s): 0 week: 145 ******** Week 145 almanac for PRN-9 ******** ID: 9 Health: 0 Eccentricity: 0.002331256866 Time of Applicability(s): 147456 Orbital Inclination(rad): 0.9541084863 Rate of Right Ascen(r/s): -7.726036106e-09 SQRT(A) (m 1/2): 5153.586426 Right Ascen at Week(rad): 0.6540806448 Argument of Perigee(rad): 1.858040971 Mean Anom(rad): -1.07976331 Af0(s): -0.0002826278686 Af1(s/s): 0 week: 145 ******** Week 145 almanac for PRN-10 ******** ID: 10 Health: 0 Eccentricity: 0.007439613342 Time of Applicability(s): 147456 Orbital Inclination(rad): 0.9723904214 Rate of Right Ascen(r/s): -7.646032773e-09 SQRT(A) (m 1/2): 5153.640137 Right Ascen at Week(rad): -0.3767248591 Argument of Perigee(rad): -2.534306663 Mean Anom(rad): 0.5616260946 Af0(s): -0.0002336390381 Af1(s/s): -1.091394e-11 week: 145 ******** Week 145 almanac for PRN-11 ******** ID: 11 Health: 255 Eccentricity: 0.0002942085266 Time of Applicability(s): 147456 Orbital Inclination(rad): 0.9615027531 Rate of Right Ascen(r/s): -8.263201338e-09 SQRT(A) (m 1/2): 5153.707031 Right Ascen at Week(rad): -1.364984866 Argument of Perigee(rad): 2.85785864 Mean Anom(rad): -1.56046293 Af0(s): -4.14520874e-05 Af1(s/s): -3.637979e-11 week: 145 ******** Week 145 almanac for PRN-12 ******** ID: 12 Health: 0 Eccentricity: 0.008588790893 Time of Applicability(s): 147456 Orbital Inclination(rad): 0.9709702908 Rate of Right Ascen(r/s): -7.508884204e-09 SQRT(A) (m 1/2): 5153.574219 Right Ascen at Week(rad): 2.838764025 Argument of Perigee(rad): 1.237997772 Mean Anom(rad): 1.245735462 Af0(s): -0.0001243562622 Af1(s/s): -7.275958e-12 week: 145 ******** Week 145 almanac for PRN-13 ******** ID: 13 Health: 0 Eccentricity: 0.005795955658 Time of Applicability(s): 147456 Orbital Inclination(rad): 0.9684655878 Rate of Right Ascen(r/s): -7.611745631e-09 SQRT(A) (m 1/2): 5153.624512 Right Ascen at Week(rad): 0.8064536979 Argument of Perigee(rad): 0.9698911866 Mean Anom(rad): -2.027215533 Af0(s): 0.0001952016479 Af1(s/s): 7.275958e-12 week: 145 ******** Week 145 almanac for PRN-14 ******** ID: 14 Health: 0 Eccentricity: 0.001336097717 Time of Applicability(s): 147456 Orbital Inclination(rad): 0.954354163 Rate of Right Ascen(r/s): -7.646032773e-09 SQRT(A) (m 1/2): 5153.597168 Right Ascen at Week(rad): 2.807942845 Argument of Perigee(rad): 3.037257244 Mean Anom(rad): 1.289837035 Af0(s): -5.652557373e-05 Af1(s/s): -3.637979e-12 week: 145 ******** Week 145 almanac for PRN-15 ******** ID: 15 Health: 0 Eccentricity: 0.01392459869 Time of Applicability(s): 147456 Orbital Inclination(rad): 0.9300261864 Rate of Right Ascen(r/s): -7.920329913e-09 SQRT(A) (m 1/2): 5153.671387 Right Ascen at Week(rad): 0.548801476 Argument of Perigee(rad): 1.070495384 Mean Anom(rad): -2.426953849 Af0(s): -7.159906006e-05 Af1(s/s): 3.637979e-12 week: 145 ******** Week 145 almanac for PRN-16 ******** ID: 16 Health: 0 Eccentricity: 0.01265621185 Time of Applicability(s): 147456 Orbital Inclination(rad): 0.9709343381 Rate of Right Ascen(r/s): -7.520313251e-09 SQRT(A) (m 1/2): 5153.545898 Right Ascen at Week(rad): 2.857387885 Argument of Perigee(rad): 0.6981271654 Mean Anom(rad): -0.6101494723 Af0(s): -0.0003610099976 Af1(s/s): -3.637979e-12 week: 145 ******** Week 145 almanac for PRN-17 ******** ID: 17 Health: 0 Eccentricity: 0.01371145248 Time of Applicability(s): 147456 Orbital Inclination(rad): 0.9802760414 Rate of Right Ascen(r/s): -7.668890868e-09 SQRT(A) (m 1/2): 5153.701172 Right Ascen at Week(rad): -2.407586967 Argument of Perigee(rad): -1.507369443 Mean Anom(rad): -1.511201024 Af0(s): 0.0004446678467 Af1(s/s): 3.637979e-12 week: 145 ******** Week 145 almanac for PRN-18 ******** ID: 18 Health: 0 Eccentricity: 0.002087116241 Time of Applicability(s): 147456 Orbital Inclination(rad): 0.9701853241 Rate of Right Ascen(r/s): -8.183198006e-09 SQRT(A) (m 1/2): 5153.576172 Right Ascen at Week(rad): -1.401201569 Argument of Perigee(rad): 3.111564307 Mean Anom(rad): 2.758268233 Af0(s): 0.0002049994141 Af1(s/s): -7.275958e-12 week: 145 ******** Week 145 almanac for PRN-19 ******** ID: 19 Health: 0 Eccentricity: 0.008935451508 Time of Applicability(s): 147456 Orbital Inclination(rad): 0.9789697609 Rate of Right Ascen(r/s): -7.726036106e-09 SQRT(A) (m 1/2): 5153.637207 Right Ascen at Week(rad): -2.36267571 Argument of Perigee(rad): 1.997596896 Mean Anom(rad): 0.8877254681 Af0(s): 8.441152344e-05 Af1(s/s): 3.637979e-12 week: 145 ******** Week 145 almanac for PRN-20 ******** ID: 20 Health: 0 Eccentricity: 0.005281925201 Time of Applicability(s): 147456 Orbital Inclination(rad): 0.9416508846 Rate of Right Ascen(r/s): -8.046049436e-09 SQRT(A) (m 1/2): 5153.679688 Right Ascen at Week(rad): -0.5273912837 Argument of Perigee(rad): 3.104516834 Mean Anom(rad): -2.654300962 Af0(s): 0.0004084914795 Af1(s/s): 0 week: 145 ******** Week 145 almanac for PRN-21 ******** ID: 21 Health: 0 Eccentricity: 0.02453708649 Time of Applicability(s): 147456 Orbital Inclination(rad): 0.9589740817 Rate of Right Ascen(r/s): -8.206056101e-09 SQRT(A) (m 1/2): 5153.541016 Right Ascen at Week(rad): -1.499615275 Argument of Perigee(rad): -1.02477257 Mean Anom(rad): -1.349644684 Af0(s): 0.0001236025879 Af1(s/s): 0 week: 145 ******** Week 145 almanac for PRN-22 ******** ID: 22 Health: 255 Eccentricity: 0.006898403168 Time of Applicability(s): 147456 Orbital Inclination(rad): 0.9384091517 Rate of Right Ascen(r/s): -8.046049436e-09 SQRT(A) (m 1/2): 5153.58252 Right Ascen at Week(rad): -0.4816081739 Argument of Perigee(rad): -0.8551691976 Mean Anom(rad): -2.614939899 Af0(s): -0.0003278483276 Af1(s/s): 7.275958e-12 week: 145 ******** Week 145 almanac for PRN-23 ******** ID: 23 Health: 0 Eccentricity: 0.001955032349 Time of Applicability(s): 147456 Orbital Inclination(rad): 0.9674169681 Rate of Right Ascen(r/s): -7.714607058e-09 SQRT(A) (m 1/2): 5153.658203 Right Ascen at Week(rad): -0.4014239721 Argument of Perigee(rad): 2.916823648 Mean Anom(rad): 1.909778368 Af0(s): 8.29041748e-06 Af1(s/s): -3.637979e-12 week: 145 ******** Week 145 almanac for PRN-24 ******** ID: 24 Health: 0 Eccentricity: 0.01228380203 Time of Applicability(s): 147456 Orbital Inclination(rad): 0.9339809806 Rate of Right Ascen(r/s): -8.217485148e-09 SQRT(A) (m 1/2): 5153.626465 Right Ascen at Week(rad): 1.64400234 Argument of Perigee(rad): 0.8014326821 Mean Anom(rad): 2.876705332 Af0(s): 0.0002193192261 Af1(s/s): 0 week: 145 ******** Week 145 almanac for PRN-25 ******** ID: 25 Health: 0 Eccentricity: 0.01038074493 Time of Applicability(s): 147456 Orbital Inclination(rad): 0.9583389177 Rate of Right Ascen(r/s): -7.634603726e-09 SQRT(A) (m 1/2): 5153.675293 Right Ascen at Week(rad): 2.762430879 Argument of Perigee(rad): 0.9725385768 Mean Anom(rad): 1.012723181 Af0(s): 0.0002147971802 Af1(s/s): 7.275958e-12 week: 145 ******** Week 145 almanac for PRN-26 ******** ID: 26 Health: 0 Eccentricity: 0.006787776947 Time of Applicability(s): 147456 Orbital Inclination(rad): 0.9391581658 Rate of Right Ascen(r/s): -7.851755628e-09 SQRT(A) (m 1/2): 5153.631836 Right Ascen at Week(rad): 2.715999497 Argument of Perigee(rad): 0.351409682 Mean Anom(rad): 0.3634676848 Af0(s): 0.0001386760742 Af1(s/s): 3.637979e-12 week: 145 ******** Week 145 almanac for PRN-27 ******** ID: 27 Health: 0 Eccentricity: 0.01003456116 Time of Applicability(s): 147456 Orbital Inclination(rad): 0.973912418 Rate of Right Ascen(r/s): -7.726036106e-09 SQRT(A) (m 1/2): 5153.60791 Right Ascen at Week(rad): -2.469854378 Argument of Perigee(rad): 0.6301799807 Mean Anom(rad): -1.484911005 Af0(s): 5.803292236e-05 Af1(s/s): 2.182787e-11 week: 145 ******** Week 145 almanac for PRN-29 ******** ID: 29 Health: 0 Eccentricity: 0.001771450043 Time of Applicability(s): 147456 Orbital Inclination(rad): 0.9822594307 Rate of Right Ascen(r/s): -7.703178011e-09 SQRT(A) (m 1/2): 5153.723145 Right Ascen at Week(rad): -2.39463614 Argument of Perigee(rad): 2.289385059 Mean Anom(rad): -1.377775779 Af0(s): -0.0003700540894 Af1(s/s): -3.637979e-12 week: 145 ******** Week 145 almanac for PRN-30 ******** ID: 30 Health: 0 Eccentricity: 0.005424976349 Time of Applicability(s): 147456 Orbital Inclination(rad): 0.9356947248 Rate of Right Ascen(r/s): -8.194627053e-09 SQRT(A) (m 1/2): 5153.519531 Right Ascen at Week(rad): 1.739883255 Argument of Perigee(rad): -2.751126758 Mean Anom(rad): 1.924664274 Af0(s): -0.0004009547363 Af1(s/s): -3.637979e-12 week: 145 ******** Week 145 almanac for PRN-31 ******** ID: 31 Health: 0 Eccentricity: 0.01046180725 Time of Applicability(s): 147456 Orbital Inclination(rad): 0.9547616266 Rate of Right Ascen(r/s): -7.977475151e-09 SQRT(A) (m 1/2): 5153.608398 Right Ascen at Week(rad): 1.74428184 Argument of Perigee(rad): 0.3668378735 Mean Anom(rad): 1.458464442 Af0(s): -0.0001266172852 Af1(s/s): 0 week: 145 ******** Week 145 almanac for PRN-32 ******** ID: 32 Health: 0 Eccentricity: 0.005424976349 Time of Applicability(s): 147456 Orbital Inclination(rad): 0.9579614147 Rate of Right Ascen(r/s): -7.646032773e-09 SQRT(A) (m 1/2): 5153.713867 Right Ascen at Week(rad): 0.6651536941 Argument of Perigee(rad): -2.373397472 Mean Anom(rad): -0.805101353 Af0(s): -4.14520874e-05 Af1(s/s): -7.275958e-12 week: 145